Location: Ferchesar
(52.6477°N, 12.4298°E)
Time: 14:56:45
(UTC+02:00)

A-11 Canister half - Visible Passes

Search period start: 04 October 2022 00:00
Search period end: 14 October 2022 00:00
Orbit: 1524 x 1684 km, 47.3° (Epoch: 03 October)

Date Brightness Start Highest point End Pass type
(mag) Time Alt. Az. Time Alt. Az. Time Alt. Az.
04 Oct 9.3 19:02:47 10° W 19:11:59 64° S 19:21:26 10° ESE visible
04 Oct 9.5 21:07:20 10° W 21:16:11 47° SSW 21:20:32 30° SSE visible
04 Oct 10.4 23:12:56 10° W 23:18:49 21° SW 23:18:49 21° SW visible
05 Oct 9.5 20:45:40 10° W 20:54:32 49° SSW 20:59:59 25° SE visible
05 Oct 10.3 22:51:09 10° W 22:57:51 22° SW 22:58:16 22° SW visible
06 Oct 9.5 20:24:00 10° W 20:32:54 50° SSW 20:39:28 20° SE visible
06 Oct 10.3 22:29:23 10° W 22:36:15 23° SW 22:37:46 22° SSW visible
07 Oct 9.5 20:02:20 10° W 20:11:15 51° SSW 20:19:02 15° SE visible
07 Oct 10.3 22:07:37 10° W 22:14:39 24° SW 22:17:19 21° SSW visible
08 Oct 9.6 19:40:40 10° W 19:49:36 52° SSW 19:58:38 10° SE visible
08 Oct 10.4 21:45:53 10° W 21:53:03 25° SW 21:56:56 19° SSW visible
09 Oct 9.6 19:19:00 10° W 19:27:57 53° SSW 19:37:08 10° SE visible
09 Oct 10.4 21:24:09 10° W 21:31:27 26° SW 21:36:38 17° S visible
10 Oct 9.6 18:57:21 10° W 19:06:19 54° SSW 19:15:29 10° SE visible
10 Oct 10.4 21:02:26 10° W 21:09:51 27° SW 21:16:24 13° S visible
11 Oct 10.4 20:40:42 10° W 20:48:15 28° SW 20:55:58 10° SSE visible
12 Oct 10.4 20:18:59 10° W 20:26:38 29° SW 20:34:28 10° SSE visible
13 Oct 10.4 19:57:17 10° W 20:05:02 31° SW 20:12:57 10° SSE visible
